| time (UTC) | temp F | wind direction | speed MPH | gust MPH | rain 1hr in | rain 24hr in | rain mn in | humidity % | barometer mb |
| 20260510234504 | 64 | 212 | 3.0 | 4.0 | 0.00 | 0.35 | 0.00 | 87 | 1016.3 |
| 20260510234004 | 64 | 180 | 3.0 | 4.0 | 0.00 | 0.35 | 0.00 | 87 | 1016.4 |
| 20260510233504 | 63 | 215 | 2.0 | 4.0 | 0.00 | 0.37 | 0.00 | 87 | 1016.5 |
| 20260510233004 | 63 | 271 | 1.0 | 2.0 | 0.00 | 0.37 | 0.00 | 86 | 1016.8 |
| 20260510232503 | 63 | 304 | 1.0 | 2.0 | 0.00 | 0.37 | 0.00 | 86 | 1016.7 |
| 20260510232004 | 63 | 313 | 1.0 | 2.0 | 0.00 | 0.37 | 0.00 | 86 | 1016.5 |
| 20260510231503 | 63 | 310 | 1.0 | 2.0 | 0.00 | 0.37 | 0.00 | 86 | 1016.6 |
| 20260510231217 | 63 | 307 | 2.0 | 2.0 | 0.00 | 0.37 | 0.00 | 86 | 1016.4 |
| 20260510230503 | 64 | 295 | 2.0 | 3.0 | 0.00 | 0.37 | 0.00 | 86 | 1016.6 |
| 20260510230218 | 64 | 301 | 3.0 | 3.0 | 0.00 | 0.37 | 0.00 | 86 | 1016.6 |
| 20260510225503 | 64 | 305 | 3.0 | 4.0 | 0.00 | 0.37 | 0.00 | 85 | 1016.5 |
| 20260510225004 | 64 | 318 | 4.0 | 6.0 | 0.00 | 0.37 | 0.00 | 85 | 1016.4 |
| 20260510224503 | 64 | 316 | 5.0 | 6.0 | 0.00 | 0.37 | 0.00 | 86 | 1016.4 |
| 20260510224003 | 64 | 314 | 5.0 | 7.0 | 0.00 | 0.37 | 0.00 | 86 | 1016.7 |
| 20260510223503 | 64 | 347 | 5.0 | 7.0 | 0.00 | 0.37 | 0.00 | 87 | 1016.8 |
| 20260510223004 | 64 | 352 | 5.0 | 6.0 | 0.00 | 0.37 | 0.00 | 88 | 1016.5 |
| 20260510222503 | 64 | 346 | 5.0 | 6.0 | 0.00 | 0.37 | 0.00 | 89 | 1016.5 |
| 20260510222004 | 64 | 8 | 4.0 | 6.0 | 0.00 | 0.37 | 0.00 | 90 | 1016.2 |
| 20260510221504 | 64 | 341 | 5.0 | 8.0 | 0.00 | 0.37 | 0.00 | 90 | 1016.5 |
| 20260510221217 | 64 | 323 | 6.0 | 8.0 | 0.00 | 0.37 | 0.00 | 90 | 1016.3 |
| 20260510220715 | 64 | 325 | 8.0 | 8.0 | 0.00 | 0.37 | 0.00 | 90 | 1016.4 |
| 20260510220005 | 64 | 102 | 9.0 | 10.0 | 0.00 | 0.37 | 0.00 | 90 | 1016.4 |
| 20260510215505 | 64 | 100 | 9.0 | 10.0 | 0.00 | 0.37 | 0.37 | 90 | 1016.2 |
| 20260510215003 | 65 | 87 | 7.0 | 9.0 | 0.00 | 0.37 | 0.37 | 90 | 1016.7 |
| 20260510214717 | 65 | 91 | 6.0 | 9.0 | 0.00 | 0.37 | 0.37 | 90 | 1016.4 |
| 20260510214003 | 65 | 76 | 6.0 | 8.0 | 0.00 | 0.37 | 0.37 | 89 | 1016.5 |
| 20260510213503 | 64 | 80 | 6.0 | 8.0 | 0.00 | 0.37 | 0.37 | 89 | 1016.4 |
| 20260510213003 | 64 | 85 | 7.0 | 8.0 | 0.00 | 0.37 | 0.37 | 89 | 1016.4 |
| 20260510212503 | 64 | 82 | 6.0 | 7.0 | 0.00 | 0.37 | 0.37 | 89 | 1016.2 |
| 20260510212003 | 65 | 80 | 6.0 | 8.0 | 0.00 | 0.37 | 0.37 | 89 | 1016.3 |
| 20260510211503 | 65 | 58 | 6.0 | 8.0 | 0.00 | 0.37 | 0.37 | 89 | 1016.4 |
| 20260510211003 | 65 | 70 | 5.0 | 8.0 | 0.00 | 0.37 | 0.37 | 89 | 1016.4 |
| 20260510210504 | 65 | 65 | 6.0 | 9.0 | 0.00 | 0.37 | 0.37 | 88 | 1016.5 |
| 20260510210004 | 65 | 67 | 7.0 | 9.0 | 0.00 | 0.37 | 0.37 | 88 | 1016.4 |
| 20260510205503 | 65 | 88 | 6.0 | 8.0 | 0.00 | 0.37 | 0.37 | 88 | 1016.7 |
| 20260510205003 | 65 | 81 | 6.0 | 11.0 | 0.00 | 0.37 | 0.37 | 88 | 1016.6 |
| 20260510204506 | 65 | 86 | 8.0 | 11.0 | 0.00 | 0.37 | 0.37 | 88 | 1016.5 |
| 20260510204004 | 65 | 86 | 7.0 | 11.0 | 0.00 | 0.37 | 0.37 | 88 | 1016.5 |
| 20260510203504 | 65 | 58 | 4.0 | 7.0 | 0.00 | 0.37 | 0.37 | 88 | 1016.5 |
| 20260510203005 | 65 | 58 | 5.0 | 8.0 | 0.00 | 0.37 | 0.37 | 88 | 1016.5 |
| 20260510202503 | 65 | 71 | 6.0 | 8.0 | 0.00 | 0.37 | 0.37 | 88 | 1016.6 |
| 20260510202003 | 65 | 66 | 6.0 | 8.0 | 0.00 | 0.37 | 0.37 | 88 | 1016.7 |
| 20260510201503 | 65 | 70 | 6.0 | 8.0 | 0.00 | 0.37 | 0.37 | 88 | 1016.7 |
| 20260510201004 | 65 | 83 | 6.0 | 7.0 | 0.00 | 0.37 | 0.37 | 88 | 1016.7 |
| 20260510200503 | 65 | 86 | 7.0 | 8.0 | 0.00 | 0.37 | 0.37 | 88 | 1016.5 |
| 20260510200004 | 65 | 74 | 7.0 | 9.0 | 0.00 | 0.37 | 0.37 | 88 | 1016.6 |
| 20260510195503 | 65 | 64 | 7.0 | 9.0 | 0.00 | 0.37 | 0.37 | 88 | 1016.4 |
| 20260510195215 | 65 | 68 | 8.0 | 11.0 | 0.00 | 0.37 | 0.37 | 87 | 1016.6 |
| 20260510194503 | 65 | 100 | 9.0 | 11.0 | 0.00 | 0.37 | 0.37 | 87 | 1016.5 |
| 20260510194004 | 65 | 94 | 8.0 | 11.0 | 0.00 | 0.37 | 0.37 | 87 | 1016.8 |
| 20260510193504 | 65 | 74 | 7.0 | 12.0 | 0.00 | 0.37 | 0.37 | 87 | 1016.5 |
| 20260510193003 | 65 | 81 | 8.0 | 12.0 | 0.00 | 0.37 | 0.37 | 87 | 1016.5 |
| 20260510192504 | 65 | 75 | 8.0 | 12.0 | 0.00 | 0.37 | 0.37 | 87 | 1016.5 |
| 20260510192004 | 65 | 69 | 8.0 | 11.0 | 0.00 | 0.37 | 0.37 | 87 | 1016.6 |
| 20260510191505 | 65 | 88 | 9.0 | 11.0 | 0.00 | 0.37 | 0.37 | 87 | 1016.2 |
| 20260510191004 | 65 | 98 | 9.0 | 10.0 | 0.00 | 0.37 | 0.37 | 87 | 1016.3 |
| 20260510190504 | 65 | 97 | 9.0 | 11.0 | 0.00 | 0.37 | 0.37 | 87 | 1016.1 |
| 20260510190004 | 65 | 104 | 10.0 | 12.0 | 0.00 | 0.37 | 0.37 | 86 | 1016.2 |
| 20260510185713 | 65 | 104 | 9.0 | 12.0 | 0.00 | 0.37 | 0.37 | 86 | 1016.1 |
| 20260510185004 | 65 | 84 | 8.0 | 11.0 | 0.00 | 0.37 | 0.37 | 86 | 1015.9 |
| 20260510184503 | 65 | 73 | 9.0 | 11.0 | 0.00 | 0.37 | 0.37 | 86 | 1016.1 |
| 20260510184003 | 65 | 74 | 10.0 | 11.0 | 0.00 | 0.37 | 0.37 | 85 | 1016.4 |
| 20260510183503 | 65 | 88 | 9.0 | 11.0 | 0.00 | 0.37 | 0.37 | 85 | 1015.9 |
| 20260510183213 | 65 | 73 | 8.0 | 10.0 | 0.00 | 0.37 | 0.37 | 84 | 1016.0 |
| 20260510182716 | 65 | 68 | 8.0 | 9.0 | 0.00 | 0.37 | 0.37 | 84 | 1016.0 |
| 20260510182004 | 65 | 92 | 8.0 | 12.0 | 0.00 | 0.37 | 0.37 | 84 | 1016.1 |
| 20260510181504 | 65 | 89 | 9.0 | 12.0 | 0.00 | 0.37 | 0.37 | 84 | 1015.8 |
| 20260510181215 | 65 | 58 | 9.0 | 10.0 | 0.00 | 0.37 | 0.37 | 84 | 1016.0 |
| 20260510180504 | 66 | 21 | 10.0 | 12.0 | 0.00 | 0.37 | 0.37 | 83 | 1016.1 |
| 20260510180216 | 66 | 55 | 10.0 | 12.0 | 0.00 | 0.37 | 0.37 | 83 | 1015.8 |
| 20260510175504 | 66 | 113 | 8.0 | 9.0 | 0.00 | 0.37 | 0.37 | 82 | 1016.0 |
| 20260510175006 | 66 | 98 | 9.0 | 9.0 | 0.00 | 0.37 | 0.37 | 82 | 1016.0 |
| 20260510174503 | 66 | 89 | 9.0 | 13.0 | 0.00 | 0.37 | 0.37 | 82 | 1015.8 |
| 20260510174004 | 66 | 79 | 9.0 | 13.0 | 0.00 | 0.37 | 0.37 | 81 | 1015.7 |
| 20260510173504 | 67 | 79 | 10.0 | 11.0 | 0.00 | 0.37 | 0.37 | 81 | 1015.8 |
| 20260510173003 | 67 | 111 | 11.0 | 15.0 | 0.00 | 0.37 | 0.37 | 81 | 1015.8 |
| 20260510172716 | 67 | 124 | 11.0 | 15.0 | 0.00 | 0.37 | 0.37 | 81 | 1015.7 |
| 20260510172003 | 67 | 126 | 10.0 | 18.0 | 0.00 | 0.37 | 0.37 | 80 | 1015.6 |
| 20260510171503 | 67 | 92 | 12.0 | 19.0 | 0.00 | 0.37 | 0.37 | 80 | 1015.6 |
| 20260510171004 | 67 | 94 | 13.0 | 19.0 | 0.00 | 0.37 | 0.37 | 80 | 1015.5 |
| 20260510170503 | 67 | 92 | 11.0 | 15.0 | 0.00 | 0.37 | 0.37 | 79 | 1015.4 |
| 20260510170216 | 67 | 72 | 12.0 | 15.0 | 0.00 | 0.37 | 0.37 | 79 | 1015.4 |
| 20260510165505 | 68 | 47 | 11.0 | 13.0 | 0.00 | 0.37 | 0.37 | 79 | 1015.4 |
| 20260510165005 | 68 | 111 | 9.0 | 12.0 | 0.00 | 0.37 | 0.37 | 78 | 1015.4 |
| 20260510164504 | 68 | 114 | 9.0 | 12.0 | 0.00 | 0.37 | 0.37 | 78 | 1015.6 |
| 20260510164213 | 68 | 83 | 10.0 | 15.0 | 0.00 | 0.37 | 0.37 | 78 | 1015.7 |
| 20260510163503 | 68 | 86 | 13.0 | 15.0 | 0.00 | 0.37 | 0.37 | 77 | 1015.6 |
| 20260510163003 | 68 | 109 | 12.0 | 18.0 | 0.00 | 0.37 | 0.37 | 78 | 1015.5 |
| 20260510162503 | 68 | 85 | 13.0 | 18.0 | 0.00 | 0.37 | 0.37 | 79 | 1015.6 |
| 20260510162003 | 68 | 78 | 12.0 | 16.0 | 0.00 | 0.37 | 0.37 | 79 | 1015.4 |
| 20260510161504 | 68 | 88 | 14.0 | 21.0 | 0.00 | 0.37 | 0.37 | 78 | 1015.4 |
| 20260510161216 | 68 | 68 | 16.0 | 21.0 | 0.00 | 0.37 | 0.37 | 78 | 1015.4 |
| 20260510160714 | 68 | 40 | 16.0 | 19.0 | 0.00 | 0.37 | 0.37 | 77 | 1015.2 |
| 20260510160003 | 69 | 75 | 12.0 | 19.0 | 0.00 | 0.37 | 0.37 | 75 | 1015.3 |
| 20260510155503 | 69 | 94 | 12.0 | 18.0 | 0.00 | 0.37 | 0.37 | 74 | 1015.2 |
| 20260510155004 | 70 | 82 | 11.0 | 16.0 | 0.00 | 0.37 | 0.37 | 75 | 1015.4 |
| 20260510154504 | 69 | 53 | 12.0 | 16.0 | 0.00 | 0.37 | 0.37 | 76 | 1015.1 |
| 20260510154004 | 69 | 52 | 15.0 | 24.0 | 0.00 | 0.37 | 0.37 | 77 | 1015.2 |
| 20260510153503 | 69 | 60 | 17.0 | 24.0 | 0.00 | 0.37 | 0.37 | 76 | 1015.2 |
| 20260510153215 | 69 | 66 | 15.0 | 21.0 | 0.00 | 0.37 | 0.37 | 75 | 1015.2 |
| 20260510152503 | 70 | 78 | 14.0 | 21.0 | 0.00 | 0.37 | 0.37 | 75 | 1015.1 |
| 20260510152003 | 69 | 115 | 17.0 | 22.0 | 0.00 | 0.37 | 0.37 | 76 | 1015.2 |
| 20260510151504 | 69 | 105 | 21.0 | 24.0 | 0.00 | 0.37 | 0.37 | 77 | 1015.1 |
| 20260510151217 | 69 | 106 | 21.0 | 24.0 | 0.00 | 0.37 | 0.37 | 76 | 1015.1 |
| 20260510150504 | 69 | 82 | 17.0 | 25.0 | 0.00 | 0.37 | 0.37 | 75 | 1015.1 |
| 20260510150004 | 70 | 107 | 16.0 | 25.0 | 0.00 | 0.37 | 0.37 | 75 | 1015.3 |
| 20260510145503 | 70 | 108 | 16.0 | 25.0 | 0.00 | 0.37 | 0.37 | 75 | 1015.0 |
| 20260510145214 | 70 | 108 | 16.0 | 21.0 | 0.00 | 0.37 | 0.37 | 74 | 1015.2 |
| 20260510144503 | 70 | 100 | 17.0 | 20.0 | 0.00 | 0.37 | 0.37 | 74 | 1015.2 |
| 20260510144004 | 70 | 84 | 15.0 | 20.0 | 0.00 | 0.37 | 0.37 | 74 | 1015.2 |
| 20260510143717 | 70 | 96 | 15.0 | 19.0 | 0.00 | 0.37 | 0.37 | 74 | 1015.3 |
| 20260510143004 | 70 | 108 | 18.0 | 22.0 | 0.00 | 0.37 | 0.37 | 74 | 1015.3 |
| 20260510142511 | 70 | 85 | 18.0 | 21.0 | 0.00 | 0.37 | 0.37 | 74 | 1015.2 |
| 20260510142009 | 71 | 82 | 17.0 | 21.0 | 0.00 | 0.37 | 0.37 | 74 | 1015.3 |
| 20260510141003 | 71 | 94 | 17.0 | 18.0 | 0.00 | 0.37 | 0.37 | 75 | 1015.4 |
| 20260510140715 | 71 | 96 | 18.0 | 26.0 | 0.00 | 0.37 | 0.37 | 73 | 1015.1 |
| 20260510140213 | 70 | 84 | 17.0 | 26.0 | 0.00 | 0.37 | 0.37 | 76 | 1015.4 |
| 20260510135716 | 71 | 72 | 14.0 | 26.0 | 0.00 | 0.37 | 0.37 | 77 | 1015.3 |
| 20260510135214 | 70 | 82 | 14.0 | 18.0 | 0.00 | 0.37 | 0.37 | 77 | 1015.3 |
| 20260510134504 | 70 | 121 | 15.0 | 20.0 | 0.00 | 0.37 | 0.37 | 77 | 1015.3 |
| 20260510134009 | 70 | 115 | 16.0 | 20.0 | 0.00 | 0.37 | 0.37 | 75 | 1015.4 |
| 20260510133509 | 71 | 104 | 16.0 | 23.0 | 0.00 | 0.37 | 0.37 | 74 | 1015.6 |
| 20260510133003 | 71 | 98 | 17.0 | 23.0 | 0.00 | 0.37 | 0.37 | 73 | 1015.3 |
| 20260510132503 | 71 | 88 | 16.0 | 23.0 | 0.00 | 0.37 | 0.37 | 71 | 1015.4 |
| 20260510132217 | 71 | 105 | 15.0 | 23.0 | 0.00 | 0.37 | 0.37 | 70 | 1015.4 |
| 20260510131507 | 71 | 147 | 13.0 | 19.0 | 0.00 | 0.37 | 0.37 | 69 | 1015.3 |
| 20260510131003 | 72 | 126 | 14.0 | 19.0 | 0.00 | 0.37 | 0.37 | 70 | 1015.4 |
| 20260510130003 | 71 | 86 | 16.0 | 20.0 | 0.00 | 0.37 | 0.37 | 69 | 1015.3 |
| 20260510125503 | 71 | 101 | 18.0 | 23.0 | 0.00 | 0.37 | 0.37 | 68 | 1015.5 |
| 20260510125003 | 72 | 107 | 18.0 | 23.0 | 0.00 | 0.37 | 0.37 | 67 | 1015.3 |
| 20260510124503 | 72 | 82 | 15.0 | 19.0 | 0.00 | 0.37 | 0.37 | 67 | 1015.3 |
| 20260510124216 | 72 | 94 | 14.0 | 19.0 | 0.00 | 0.37 | 0.37 | 67 | 1015.0 |
| 20260510123504 | 73 | 112 | 11.0 | 16.0 | 0.00 | 0.37 | 0.37 | 66 | 1015.0 |
| 20260510123004 | 73 | 99 | 10.0 | 16.0 | 0.00 | 0.37 | 0.37 | 66 | 1015.1 |
| 20260510121503 | 75 | 122 | 11.0 | 12.0 | 0.00 | 0.37 | 0.37 | 62 | 1015.2 |
| 20260510121003 | 77 | 207 | 11.0 | 12.0 | 0.00 | 0.37 | 0.37 | 60 | 1015.0 |
| 20260510120504 | 78 | 238 | 11.0 | 15.0 | 0.00 | 0.37 | 0.37 | 51 | 1014.8 |
| 20260510120214 | 78 | 241 | 11.0 | 15.0 | 0.00 | 0.37 | 0.37 | 51 | 1014.8 |
| 20260510115504 | 78 | 228 | 8.0 | 15.0 | 0.00 | 0.37 | 0.37 | 52 | 1014.6 |
| 20260510115003 | 78 | 248 | 8.0 | 16.0 | 0.00 | 0.37 | 0.37 | 54 | 1014.8 |
| 20260510114503 | 78 | 196 | 12.0 | 16.0 | 0.00 | 0.37 | 0.37 | 57 | 1014.7 |
| 20260510114004 | 77 | 201 | 11.0 | 16.0 | 0.00 | 0.37 | 0.37 | 53 | 1014.9 |
| 20260510113714 | 76 | 276 | 10.0 | 19.0 | 0.00 | 0.37 | 0.37 | 59 | 1014.9 |
| 20260510113217 | 75 | 247 | 11.0 | 19.0 | 0.00 | 0.37 | 0.37 | 62 | 1014.7 |
| 20260510112503 | 76 | 327 | 6.0 | 10.0 | 0.00 | 0.37 | 0.37 | 64 | 1014.8 |
| 20260510112003 | 75 | 10 | 5.0 | 7.0 | 0.00 | 0.37 | 0.37 | 64 | 1015.2 |
| 20260510111503 | 75 | 27 | 5.0 | 8.0 | 0.00 | 0.37 | 0.37 | 65 | 1015.1 |
| 20260510111003 | 74 | 70 | 7.0 | 10.0 | 0.00 | 0.37 | 0.37 | 66 | 1015.2 |
| 20260510110503 | 74 | 72 | 7.0 | 10.0 | 0.00 | 0.37 | 0.37 | 65 | 1014.9 |
| 20260510110004 | 74 | 81 | 9.0 | 11.0 | 0.00 | 0.37 | 0.37 | 66 | 1015.3 |
| 20260510105503 | 74 | 88 | 9.0 | 11.0 | 0.00 | 0.37 | 0.37 | 68 | 1015.1 |
| 20260510105216 | 74 | 66 | 8.0 | 11.0 | 0.00 | 0.37 | 0.37 | 67 | 1015.1 |
| 20260510104503 | 74 | 85 | 8.0 | 10.0 | 0.00 | 0.37 | 0.37 | 69 | 1015.0 |
| 20260510104003 | 73 | 85 | 8.0 | 10.0 | 0.00 | 0.37 | 0.37 | 69 | 1015.2 |
| 20260510103503 | 73 | 43 | 7.0 | 10.0 | 0.00 | 0.37 | 0.37 | 68 | 1015.3 |
| 20260510103004 | 73 | 53 | 7.0 | 11.0 | 0.00 | 0.37 | 0.37 | 67 | 1015.4 |
| 20260510102504 | 74 | 82 | 8.0 | 11.0 | 0.00 | 0.37 | 0.37 | 66 | 1015.3 |
| 20260510102004 | 74 | 63 | 7.0 | 11.0 | 0.00 | 0.37 | 0.37 | 66 | 1015.3 |
| 20260510101503 | 75 | 4 | 7.0 | 11.0 | 0.00 | 0.37 | 0.37 | 65 | 1015.3 |
| 20260510101004 | 75 | 351 | 7.0 | 10.0 | 0.00 | 0.37 | 0.37 | 67 | 1015.2 |
| 20260510100504 | 74 | 354 | 5.0 | 7.0 | 0.00 | 0.37 | 0.37 | 68 | 1014.9 |
| 20260510100004 | 74 | 322 | 7.0 | 16.0 | 0.00 | 0.37 | 0.37 | 68 | 1015.1 |
| 20260510095503 | 74 | 286 | 11.0 | 16.0 | 0.00 | 0.37 | 0.37 | 65 | 1015.1 |
| 20260510095003 | 77 | 246 | 14.0 | 20.0 | 0.00 | 0.37 | 0.37 | 60 | 1015.2 |
| 20260510094715 | 77 | 240 | 14.0 | 20.0 | 0.00 | 0.37 | 0.37 | 56 | 1015.1 |
| 20260510094004 | 76 | 208 | 10.0 | 13.0 | 0.00 | 0.37 | 0.37 | 60 | 1014.9 |
| 20260510093716 | 76 | 204 | 9.0 | 12.0 | 0.00 | 0.37 | 0.37 | 61 | 1014.9 |
| 20260510093003 | 74 | 323 | 6.0 | 9.0 | 0.00 | 0.37 | 0.37 | 70 | 1015.1 |
| 20260510092504 | 74 | 340 | 5.0 | 8.0 | 0.00 | 0.37 | 0.37 | 71 | 1014.9 |
| 20260510092004 | 74 | 322 | 4.0 | 7.0 | 0.00 | 0.37 | 0.37 | 71 | 1015.1 |
| 20260510091718 | 73 | 319 | 4.0 | 7.0 | 0.00 | 0.37 | 0.37 | 71 | 1014.8 |
| 20260510091004 | 74 | 297 | 3.0 | 4.0 | 0.00 | 0.37 | 0.37 | 72 | 1014.8 |
| 20260510090503 | 73 | 295 | 3.0 | 5.0 | 0.00 | 0.37 | 0.37 | 73 | 1015.1 |
| 20260510090005 | 72 | 326 | 4.0 | 6.0 | 0.00 | 0.37 | 0.37 | 73 | 1015.0 |
| 20260510085714 | 72 | 325 | 5.0 | 6.0 | 0.00 | 0.37 | 0.37 | 73 | 1015.0 |
| 20260510085004 | 71 | 334 | 5.0 | 6.0 | 0.00 | 0.37 | 0.37 | 76 | 1015.0 |
| 20260510084715 | 71 | 328 | 5.0 | 7.0 | 0.00 | 0.37 | 0.37 | 76 | 1015.2 |
| 20260510084003 | 70 | 308 | 6.0 | 8.0 | 0.00 | 0.37 | 0.37 | 80 | 1014.9 |
| 20260510083503 | 69 | 309 | 7.0 | 8.0 | 0.00 | 0.37 | 0.37 | 81 | 1015.1 |
| 20260510083214 | 69 | 327 | 7.0 | 10.0 | 0.00 | 0.37 | 0.37 | 81 | 1015.2 |
| 20260510082717 | 69 | 336 | 7.0 | 10.0 | 0.00 | 0.37 | 0.37 | 81 | 1015.0 |
| 20260510082003 | 68 | 320 | 6.0 | 9.0 | 0.00 | 0.37 | 0.37 | 81 | 1014.8 |
| 20260510081503 | 68 | 324 | 7.0 | 9.0 | 0.00 | 0.37 | 0.37 | 81 | 1015.0 |
| 20260510081216 | 68 | 333 | 7.0 | 9.0 | 0.00 | 0.37 | 0.37 | 82 | 1015.0 |
| 20260510080504 | 68 | 332 | 9.0 | 11.0 | 0.00 | 0.37 | 0.37 | 82 | 1014.9 |
| 20260510080003 | 68 | 329 | 8.0 | 11.0 | 0.00 | 0.37 | 0.37 | 83 | 1015.0 |
| 20260510075715 | 68 | 323 | 7.0 | 11.0 | 0.00 | 0.37 | 0.37 | 83 | 1014.9 |
| 20260510075213 | 68 | 312 | 6.0 | 7.0 | 0.00 | 0.37 | 0.37 | 84 | 1014.9 |
| 20260510074503 | 67 | 302 | 7.0 | 9.0 | 0.00 | 0.37 | 0.37 | 84 | 1015.0 |
| 20260510074004 | 67 | 319 | 8.0 | 10.0 | 0.00 | 0.37 | 0.37 | 84 | 1014.8 |
| 20260510073503 | 67 | 331 | 8.0 | 10.0 | 0.00 | 0.37 | 0.37 | 84 | 1014.9 |
| 20260510073004 | 67 | 316 | 7.0 | 9.0 | 0.00 | 0.37 | 0.37 | 84 | 1014.9 |
| 20260510072504 | 67 | 314 | 7.0 | 10.0 | 0.00 | 0.37 | 0.37 | 84 | 1014.7 |
| 20260510072216 | 67 | 325 | 8.0 | 16.0 | 0.00 | 0.37 | 0.37 | 84 | 1014.9 |
| 20260510071504 | 67 | 337 | 10.0 | 16.0 | 0.00 | 0.37 | 0.37 | 82 | 1014.8 |
| 20260510071003 | 67 | 337 | 10.0 | 12.0 | 0.00 | 0.37 | 0.37 | 80 | 1015.1 |
| 20260510070504 | 68 | 322 | 9.0 | 12.0 | 0.00 | 0.37 | 0.37 | 76 | 1014.9 |
| 20260510070004 | 70 | 294 | 7.0 | 10.0 | 0.00 | 0.37 | 0.37 | 72 | 1015.2 |
| 20260510065716 | 71 | 280 | 8.0 | 10.0 | 0.00 | 0.37 | 0.37 | 71 | 1015.0 |
| 20260510065003 | 72 | 275 | 6.0 | 10.0 | 0.00 | 0.37 | 0.37 | 64 | 1015.0 |
| 20260510064504 | 72 | 262 | 5.0 | 7.0 | 0.00 | 0.37 | 0.37 | 65 | 1014.8 |
| 20260510064003 | 71 | 273 | 5.0 | 7.0 | 0.00 | 0.37 | 0.37 | 64 | 1014.6 |
| 20260510063504 | 71 | 238 | 5.0 | 8.0 | 0.00 | 0.37 | 0.37 | 64 | 1014.8 |
| 20260510063004 | 71 | 198 | 7.0 | 11.0 | 0.00 | 0.37 | 0.37 | 63 | 1014.6 |
| 20260510062504 | 71 | 207 | 8.0 | 11.0 | 0.00 | 0.37 | 0.37 | 63 | 1014.7 |
| 20260510062003 | 70 | 211 | 6.0 | 8.0 | 0.00 | 0.37 | 0.37 | 67 | 1014.4 |
| 20260510061504 | 70 | 213 | 6.0 | 10.0 | 0.00 | 0.37 | 0.37 | 69 | 1014.4 |
| 20260510061004 | 70 | 245 | 4.0 | 10.0 | 0.00 | 0.37 | 0.37 | 70 | 1014.5 |
| 20260510060504 | 69 | 255 | 4.0 | 6.0 | 0.00 | 0.37 | 0.37 | 71 | 1014.3 |
| 20260510060004 | 69 | 195 | 7.0 | 16.0 | 0.00 | 0.37 | 0.37 | 71 | 1014.0 |
| 20260510055503 | 69 | 177 | 8.0 | 16.0 | 0.00 | 0.37 | 0.37 | 71 | 1014.0 |
| 20260510055004 | 68 | 180 | 8.0 | 16.0 | 0.00 | 0.37 | 0.37 | 71 | 1013.8 |
| 20260510054504 | 68 | 198 | 9.0 | 11.0 | 0.00 | 0.37 | 0.37 | 72 | 1014.0 |
| 20260510054004 | 68 | 201 | 10.0 | 11.0 | 0.00 | 0.37 | 0.37 | 72 | 1013.8 |
| 20260510053503 | 68 | 196 | 10.0 | 12.0 | 0.00 | 0.37 | 0.37 | 73 | 1013.6 |
| 20260510053003 | 68 | 201 | 11.0 | 16.0 | 0.00 | 0.37 | 0.37 | 74 | 1013.7 |
| 20260510052504 | 67 | 200 | 12.0 | 16.0 | 0.00 | 0.37 | 0.37 | 75 | 1013.6 |
| 20260510052217 | 67 | 192 | 12.0 | 15.0 | 0.00 | 0.37 | 0.37 | 76 | 1013.6 |
| 20260510051503 | 67 | 187 | 11.0 | 15.0 | 0.00 | 0.37 | 0.37 | 77 | 1013.5 |
| 20260510051004 | 67 | 184 | 12.0 | 13.0 | 0.00 | 0.37 | 0.37 | 78 | 1013.4 |
| 20260510050503 | 66 | 177 | 11.0 | 12.0 | 0.00 | 0.37 | 0.37 | 81 | 1013.5 |
| 20260510050005 | 66 | 179 | 9.0 | 12.0 | 0.00 | 0.37 | 0.37 | 88 | 1013.4 |
| 20260510045503 | 65 | 195 | 9.0 | 12.0 | 0.00 | 0.37 | 0.37 | 95 | 1013.3 |
| 20260510045003 | 65 | 193 | 6.0 | 10.0 | 0.00 | 0.37 | 0.37 | 99 | 1013.5 |
| 20260510044504 | 64 | 43 | 2.0 | 3.0 | 0.00 | 0.37 | 0.37 | 99 | 1013.7 |
| 20260510044216 | 64 | 52 | 2.0 | 3.0 | 0.00 | 0.37 | 0.37 | 99 | 1013.7 |
| 20260510043504 | 64 | 353 | 1.0 | 2.0 | 0.00 | 0.37 | 0.37 | 99 | 1013.9 |
| 20260510043004 | 64 | 336 | 1.0 | 2.0 | 0.00 | 0.37 | 0.37 | 99 | 1014.1 |
| 20260510042715 | 64 | 318 | 1.0 | 2.0 | 0.00 | 0.37 | 0.37 | 99 | 1014.0 |
| 20260510042003 | 64 | 314 | 1.0 | 2.0 | 0.00 | 0.37 | 0.37 | 99 | 1013.9 |
| 20260510041504 | 64 | 325 | 2.0 | 3.0 | 0.00 | 0.37 | 0.37 | 99 | 1013.9 |
| 20260510041004 | 64 | 321 | 2.0 | 3.0 | 0.00 | 0.37 | 0.37 | 99 | 1014.0 |
| 20260510040503 | 63 | 321 | 2.0 | 4.0 | 0.00 | 0.37 | 0.37 | 99 | 1013.8 |
| 20260510040004 | 63 | 349 | 3.0 | 4.0 | 0.00 | 0.37 | 0.37 | 99 | 1014.0 |
| 20260510035503 | 63 | 4 | 3.0 | 4.0 | 0.00 | 0.37 | 0.37 | 99 | 1013.9 |
| 20260510035003 | 63 | 350 | 2.0 | 4.0 | 0.00 | 0.37 | 0.37 | 99 | 1013.9 |
| 20260510034504 | 63 | 322 | 2.0 | 4.0 | 0.00 | 0.37 | 0.37 | 99 | 1014.0 |
| 20260510034003 | 63 | 309 | 2.0 | 4.0 | 0.00 | 0.37 | 0.37 | 99 | 1014.1 |
| 20260510033504 | 63 | 302 | 3.0 | 6.0 | 0.08 | 0.37 | 0.37 | 99 | 1014.0 |
| 20260510033003 | 63 | 300 | 3.0 | 6.0 | 0.16 | 0.37 | 0.37 | 99 | 1014.0 |
| 20260510032503 | 63 | 315 | 2.0 | 4.0 | 0.18 | 0.37 | 0.37 | 99 | 1014.2 |
| 20260510032004 | 63 | 332 | 2.0 | 4.0 | 0.20 | 0.37 | 0.37 | 99 | 1014.0 |
| 20260510031503 | 63 | 175 | 3.0 | 4.0 | 0.20 | 0.37 | 0.37 | 99 | 1014.0 |
| 20260510031003 | 63 | 152 | 4.0 | 4.0 | 0.20 | 0.37 | 0.37 | 99 | 1013.9 |
| 20260510030504 | 63 | 122 | 4.0 | 6.0 | 0.20 | 0.37 | 0.37 | 99 | 1013.5 |
| 20260510030005 | 63 | 153 | 6.0 | 11.0 | 0.20 | 0.37 | 0.37 | 99 | 1013.8 |
| 20260510025503 | 63 | 144 | 9.0 | 13.0 | 0.20 | 0.37 | 0.37 | 99 | 1013.7 |
| 20260510025003 | 63 | 120 | 11.0 | 15.0 | 0.20 | 0.37 | 0.37 | 99 | 1013.7 |
| 20260510024503 | 63 | 100 | 12.0 | 16.0 | 0.20 | 0.37 | 0.37 | 99 | 1013.6 |
| 20260510024003 | 63 | 111 | 10.0 | 16.0 | 0.22 | 0.37 | 0.37 | 99 | 1013.9 |
| 20260510023503 | 63 | 109 | 7.0 | 10.0 | 0.14 | 0.30 | 0.30 | 99 | 1014.1 |
| 20260510023004 | 63 | 87 | 5.0 | 9.0 | 0.06 | 0.22 | 0.24 | 99 | 1014.3 |
| 20260510022504 | 63 | 52 | 3.0 | 6.0 | 0.06 | 0.20 | 0.20 | 99 | 1015.0 |
| 20260510022214 | 63 | 39 | 3.0 | 6.0 | 0.06 | 0.20 | 0.20 | 99 | 1015.0 |
| 20260510021504 | 63 | 134 | 6.0 | 8.0 | 0.04 | 0.18 | 0.18 | 99 | 1014.9 |
| 20260510021004 | 63 | 164 | 7.0 | 8.0 | 0.04 | 0.18 | 0.18 | 99 | 1015.5 |
| 20260510020713 | 63 | 179 | 7.0 | 8.0 | 0.06 | 0.18 | 0.18 | 99 | 1014.6 |
| 20260510020216 | 63 | 165 | 7.0 | 10.0 | 0.06 | 0.18 | 0.18 | 99 | 1015.8 |
| 20260510015503 | 63 | 126 | 9.0 | 15.0 | 0.08 | 0.18 | 0.18 | 99 | 1015.6 |
| 20260510015003 | 63 | 123 | 12.0 | 15.0 | 0.08 | 0.18 | 0.18 | 99 | 1015.3 |
| 20260510014503 | 63 | 109 | 10.0 | 15.0 | 0.08 | 0.18 | 0.18 | 99 | 1015.3 |
| 20260510014003 | 63 | 337 | 7.0 | 11.0 | 0.06 | 0.16 | 0.16 | 99 | 1014.9 |
| 20260510013503 | 63 | 315 | 8.0 | 11.0 | 0.06 | 0.16 | 0.16 | 98 | 1016.8 |
| 20260510013004 | 63 | 247 | 10.0 | 16.0 | 0.06 | 0.16 | 0.16 | 98 | 1017.3 |
| 20260510012504 | 63 | 149 | 13.0 | 18.0 | 0.04 | 0.14 | 0.14 | 97 | 1016.1 |
| 20260510012003 | 63 | 128 | 14.0 | 18.0 | 0.04 | 0.14 | 0.14 | 97 | 1015.1 |
| 20260510011503 | 63 | 131 | 12.0 | 16.0 | 0.04 | 0.14 | 0.14 | 96 | 1015.1 |
| 20260510011003 | 63 | 122 | 8.0 | 16.0 | 0.06 | 0.14 | 0.14 | 96 | 1015.7 |
| 20260510010503 | 63 | 112 | 4.0 | 5.0 | 0.06 | 0.12 | 0.12 | 95 | 1016.4 |
| 20260510010004 | 63 | 294 | 2.0 | 5.0 | 0.06 | 0.12 | 0.12 | 95 | 1016.9 |
| 20260510005503 | 63 | 299 | 2.0 | 2.0 | 0.06 | 0.10 | 0.10 | 95 | 1017.3 |
| 20260510005003 | 63 | 251 | 2.0 | 4.0 | 0.06 | 0.10 | 0.10 | 95 | 1017.4 |
| 20260510004503 | 63 | 270 | 4.0 | 8.0 | 0.08 | 0.10 | 0.10 | 95 | 1017.3 |
| 20260510004003 | 63 | 304 | 5.0 | 8.0 | 0.08 | 0.10 | 0.10 | 94 | 1017.6 |
| 20260510003504 | 63 | 320 | 6.0 | 12.0 | 0.10 | 0.10 | 0.10 | 94 | 1017.4 |
| 20260510003004 | 63 | 318 | 12.0 | 20.0 | 0.10 | 0.10 | 0.10 | 94 | 1017.5 |
| 20260510002503 | 63 | 319 | 14.0 | 20.0 | 0.10 | 0.10 | 0.10 | 93 | 1017.6 |
| 20260510002004 | 64 | 318 | 10.0 | 13.0 | 0.10 | 0.10 | 0.10 | 92 | 1017.5 |
| 20260510001503 | 64 | 319 | 10.0 | 16.0 | 0.10 | 0.10 | 0.10 | 92 | 1017.7 |
| 20260510001003 | 64 | 296 | 11.0 | 16.0 | 0.08 | 0.08 | 0.10 | 91 | 1017.3 |
| 20260510000503 | 64 | 301 | 14.0 | 25.0 | 0.06 | 0.06 | 0.06 | 90 | 1017.3 |
| 20260510000004 | 64 | 327 | 22.0 | 28.0 | 0.06 | 0.06 | 0.06 | 90 | 1018.1 |
| 20260509235503 | 64 | 324 | 24.0 | 28.0 | 0.04 | 0.04 | 0.04 | 89 | 1018.4 |
| 20260509235004 | 64 | 320 | 21.0 | 29.0 | 0.04 | 0.04 | 0.04 | 88 | 1018.6 |